This is the latest recevied weather packets stored in our database for station/object WS2Z. If no packets are shown the sender has not sent any weather packets the latest 10 day(s).
| Time | Temp. | Humidity | Pressure | Rain* | Wind** | Luminosity | Snow |
|---|---|---|---|---|---|---|---|
| 1777242061 | 27.22° C | 69% | 1011.7 hPa | 0 mm | - | 171 W/m² | - |
| 1777241759 | 27.78° C | 68% | 1011.7 hPa | 0 mm | - | 187 W/m² | - |
| 1777241456 | 27.78° C | 70% | 1011.5 hPa | 0 mm | - | 198 W/m² | - |
| 1777241154 | 27.78° C | 71% | 1011.7 hPa | 0 mm | - | 216 W/m² | - |
| 1777240851 | 27.78° C | 72% | 1011.5 hPa | 0 mm | - | 233 W/m² | - |
| 1777240549 | 27.78° C | 70% | 1011.4 hPa | 0 mm | - | 249 W/m² | - |
| 1777240246 | 27.78° C | 71% | 1011.5 hPa | 0 mm | - | 273 W/m² | - |
| 1777239944 | 28.33° C | 69% | 1011.7 hPa | 0 mm | - | 245 W/m² | - |
| 1777239641 | 27.78° C | 69% | 1011.7 hPa | 0 mm | - | 303 W/m² | - |
| 1777239337 | 27.78° C | 70% | 1011.7 hPa | 0 mm | - | 314 W/m² | - |
| 1777239034 | 27.78° C | 69% | 1011.6 hPa | 0 mm | - | 331 W/m² | - |
| 1777238732 | 27.78° C | 68% | 1011.6 hPa | 0 mm | - | 356 W/m² | - |
| 1777238427 | 27.78° C | 69% | 1011.6 hPa | 0 mm | - | 374 W/m² | - |
| 1777238124 | 27.78° C | 69% | 1011.6 hPa | 0 mm | - | 419 W/m² | - |
| 1777237822 | 27.78° C | 70% | 1011.6 hPa | 0 mm | - | 416 W/m² | - |
| 1777237518 | 28.33° C | 69% | 1011.7 hPa | 0 mm | - | 431 W/m² | - |
| 1777237216 | 27.78° C | 70% | 1011.8 hPa | 0 mm | - | 452 W/m² | - |
| 1777236913 | 27.78° C | 69% | 1011.6 hPa | 0 mm | - | 462 W/m² | - |
| 1777236610 | 27.78° C | 69% | 1011.6 hPa | 0 mm | - | 480 W/m² | - |
| 1777236310 | 28.33° C | 68% | 1011.7 hPa | 0 mm | - | 499 W/m² | - |
| 1777236007 | 27.78° C | 68% | 1011.6 hPa | 0 mm | - | 514 W/m² | - |
| 1777235702 | 27.78° C | 68% | 1011.6 hPa | 0 mm | - | 523 W/m² | - |
| 1777235400 | 28.33° C | 68% | 1011.5 hPa | 0 mm | - | 547 W/m² | - |
| 1777235095 | 28.33° C | 67% | 1011.6 hPa | 0 mm | - | 559 W/m² | - |
| 1777234791 | 28.33° C | 66% | 1011.5 hPa | 0 mm | - | 579 W/m² | - |
* Rain latest hour (hover to see other rain measurements)
** Current wind speed in m/s (hover to see current wind gust speed)